Location: Unspecified
(0.0000°N, 0.0000°E)
Time: 17:20:36
(UTC+00:00)

Hubble Space Telescope - Pass Details

Date: 12 May 2021
Orbit: 535 x 539 km, 28.5° (Epoch: 14 May)

Event Time Altitude Azimuth Distance (km) Brightness Sun altitude
Exits shadow 04:53:23 26° 237° (WSW) 1,069 1.7 -14.9°
Maximum altitude 04:55:38 85° 151° (SSE) 536 0.7 -14.4°
Drops below altitude 10° 04:59:44 10° 61° (ENE) 1,771 4.8 -13.4°
Sets 05:01:59 0° 61° (ENE) 2,659 6.2 -12.9°
